Tracking 30990 objects as of 8-Jul-2025
HD Live streaming from Space Station
objects crossing your sky now

OBJECT B

Track OBJECT B now!
10-day predictions


NORAD ID: 53445
Int'l Code: 2022-098B
Perigee: 460.9 km
Apogee: 468.6 km
Inclination: 97.5 °
Period: 93.7 minutes
Semi major axis: 6835 km
RCS: Unknown
Launch date: August 10, 2022
Source: People's Republic of China (PRC)
Launch site: Taiyaun Space Center, China (TSC)
Your satellite tracking list
Your tracking list is empty




NASA's NSSDC Master Catalog

Two Line Element Set (TLE):
1 53445U 22098B   25189.18217351  .00015254  00000-0  43530-3 0  9990
2 53445  97.5370 298.3960 0005646 165.7395 194.4009 15.36122430161381
Source of the keplerian elements: AFSPC